Theta_e
341 344 348 352 364 367 371 366 357 359 358 353 354 356 359 359 360 367 349 348 350 351 352 351 349 351 350 351 349 348 349 351 352 352 353 352 350 349 350 352 350 352 348 350 351 350 351 352 352
345 345 350 360 371 377 370 363 364 358 355 352 354 355 357 360 352 350 351 350 350 351 351 352 348 349 349 351 350 349 352 352 352 352 351 348 349 352 352 351 347 352 350 349 351 350 349 351 351
351 350 359 367 372 373 373 365 364 355 352 354 358 356 356 357 351 351 351 349 349 348 349 349 347 347 349 350 351 352 352 351 352 352 350 349 351 351 350 350 351 348 350 350 350 350 351 349 347
353 353 358 372 373 366 369 363 360 356 355 356 355 360 353 351 351 350 349 348 345 345 348 348 348 353 351 350 352 353 352 352 349 353 350 351 352 352 352 351 350 351 351 348 350 349 349 349 343
351 359 368 372 369 360 362 358 354 358 356 357 357 359 356 351 350 349 347 347 344 347 349 350 350 352 352 353 350 353 352 352 352 351 352 352 351 351 351 351 351 351 346 349 350 350 349 349 340
359 360 372 373 361 356 358 356 355 356 357 358 357 356 355 351 350 349 347 346 346 346 347 352 352 352 351 353 354 353 351 352 349 353 353 352 352 352 351 351 351 351 350 349 350 349 349 345 334
359 366 370 367 364 364 361 356 357 359 358 359 354 360 354 350 349 348 346 345 344 344 346 351 352 352 351 352 353 353 353 353 353 350 352 351 351 352 352 351 349 349 349 348 348 347 343 340 334
358 363 368 368 369 366 357 359 356 358 361 355 355 360 357 351 349 348 346 343 343 344 347 351 350 350 352 353 353 353 353 354 352 352 349 339 344 347 346 347 349 348 349 348 348 347 338 333 335
352 367 370 364 369 366 357 359 356 355 356 355 356 354 351 349 349 347 345 342 345 343 345 347 348 348 350 352 354 353 349 346 345 349 342 348 350 350 349 346 348 348 348 348 347 345 342 337 338
354 367 365 359 359 355 357 359 357 357 357 358 358 353 350 349 349 348 344 341 344 343 342 344 349 348 352 350 351 351 349 349 349 351 348 349 347 346 347 343 342 339 345 345 340 335 341 347 347
350 357 363 360 357 355 354 358 355 357 359 358 359 354 350 349 348 346 344 342 341 342 341 344 348 346 346 346 351 352 350 351 350 348 349 349 349 345 344 342 344 342 344 344 343 345 344 347 346
349 350 352 354 356 359 362 358 361 357 356 355 355 351 351 350 349 345 344 343 341 342 342 345 344 345 347 345 349 348 350 351 347 348 350 349 346 344 348 348 350 346 347 349 347 345 345 343 346
346 348 349 354 356 356 350 359 361 351 347 354 353 351 351 350 347 345 344 342 340 341 342 345 342 348 346 347 345 347 348 345 348 346 350 349 351 349 348 346 347 346 348 346 344 349 348 347 347
343 343 348 352 355 358 355 359 357 357 355 356 354 352 350 350 347 346 345 343 341 340 343 344 343 347 346 348 349 347 343 348 350 349 352 348 352 349 350 345 348 345 347 343 347 341 347 343 345
334 339 341 345 355 356 353 357 358 357 355 355 356 353 351 350 347 347 346 343 341 341 344 344 344 348 347 347 351 344 347 350 347 351 351 353 350 351 350 348 347 345 350 342 343 343 344 344 346
331 334 340 340 346 354 354 362 355 356 356 356 357 353 352 350 348 347 345 343 342 341 346 344 343 347 348 349 349 347 348 349 350 352 352 353 351 353 349 349 345 348 348 346 344 346 345 345 342
330 332 337 339 344 349 356 362 358 356 359 356 355 354 353 352 349 347 346 343 342 342 345 344 344 347 347 348 346 348 350 350 348 350 353 352 352 354 350 348 351 344 350 350 343 339 344 343 344
329 331 333 337 340 346 351 360 358 353 355 356 355 355 353 351 351 348 346 343 343 343 343 343 348 348 347 351 348 349 349 348 350 348 352 353 353 352 349 351 350 350 346 346 348 343 347 343 341
329 328 330 332 335 344 347 357 354 351 351 350 355 357 354 352 351 349 347 343 345 344 344 344 347 350 348 350 352 350 349 348 349 350 352 353 354 354 348 352 347 352 348 346 348 348 345 339 338
330 330 328 329 332 346 357 356 351 349 348 349 354 354 355 352 350 350 347 344 345 345 345 347 346 350 348 352 350 348 349 348 349 350 355 352 354 355 354 353 352 350 351 350 351 342 345 340 340
327 327 327 328 331 343 346 359 355 348 350 354 354 351 352 354 353 352 349 346 345 346 347 348 347 351 349 350 348 348 348 351 349 354 353 354 353 354 354 354 353 350 352 350 352 352 346 344 344
327 327 326 327 328 334 337 356 358 356 359 351 348 353 351 353 353 352 350 348 345 347 349 348 350 353 348 348 347 348 349 349 348 354 353 351 354 354 355 355 355 352 352 349 348 348 350 342 347
326 327 327 326 326 328 333 338 355 358 354 355 349 353 350 352 353 352 350 349 346 348 350 350 351 353 350 347 349 348 348 349 351 347 352 354 353 354 356 357 355 351 352 351 352 350 348 350 347
325 325 327 327 326 327 327 333 339 359 353 348 349 353 352 350 352 353 350 349 348 348 349 352 352 352 352 346 349 348 347 351 348 347 352 356 354 354 355 355 355 355 353 352 353 353 349 350 349
326 325 327 329 328 328 326 326 334 342 350 347 349 354 354 353 352 354 354 352 350 348 349 351 354 354 353 352 346 353 346 347 351 350 353 351 356 353 354 356 354 352 354 354 354 352 354 351 354
326 326 328 331 329 328 329 328 328 330 350 351 351 352 352 355 354 353 354 353 352 350 349 350 355 355 355 356 349 348 352 347 349 352 348 351 347 351 352 351 355 354 354 356 354 353 354 352 351
327 329 326 327 328 330 329 329 328 329 331 352 348 350 349 352 354 354 354 352 354 352 350 351 354 356 357 355 355 349 353 352 349 349 350 348 349 349 354 351 356 357 356 354 354 353 352 354 353
323 325 328 328 332 334 330 333 331 331 331 335 350 353 352 351 347 352 355 353 354 353 353 351 354 357 358 356 357 355 349 352 349 345 350 350 350 346 356 356 355 352 356 355 356 355 353 353 352
323 325 327 328 330 331 332 332 333 337 332 333 350 349 346 348 347 351 345 353 353 353 354 353 354 358 360 359 357 356 354 350 347 349 344 352 349 355 348 353 353 356 353 356 356 353 355 355 353
319 324 325 330 333 332 331 331 331 333 333 332 333 347 345 348 346 344 343 349 354 354 354 355 355 357 360 361 359 358 358 355 352 347 353 356 356 351 357 352 354 353 355 355 355 356 354 356 354
Wind_Speed
11 11 10 4 4 6 2 2 12 15 10 8 15 17 17 10 1 11 29 23 23 21 18 16 15 14 13 12 12 11 12 12 11 10 10 10 11 11 12 12 13 12 13 12 12 13 13 13 13
13 13 11 2 4 5 2 2 6 12 14 18 17 16 18 18 18 24 25 29 25 23 19 17 16 14 12 12 11 11 11 10 10 10 10 11 11 12 11 12 12 12 13 12 12 14 13 13 12
13 10 1 4 4 2 1 11 14 16 18 17 8 8 9 17 24 23 33 30 27 23 20 18 15 13 14 13 13 13 12 11 11 10 11 11 12 12 11 12 12 11 13 12 13 13 13 12 12
9 4 4 5 7 12 7 23 14 18 12 23 16 15 21 30 23 33 33 30 28 25 20 19 15 15 15 14 14 13 13 12 12 12 12 12 12 12 12 12 11 12 12 13 12 12 11 12 10
3 3 5 7 7 10 13 9 13 16 12 17 19 19 11 17 33 34 33 30 31 27 21 18 16 15 15 14 13 13 13 13 13 13 13 13 12 12 12 11 11 12 12 12 11 11 11 10 11
1 3 5 7 5 7 14 15 10 15 16 19 24 23 11 21 33 28 29 30 29 26 22 19 16 15 14 14 13 13 14 14 14 14 14 14 14 13 12 12 12 12 12 11 11 11 10 8 12
6 6 3 7 6 9 13 16 14 14 13 19 21 19 15 19 33 29 27 33 30 27 21 18 15 15 15 14 13 13 14 13 14 14 14 14 14 12 13 12 12 12 12 12 12 13 11 11 14
8 4 2 5 0 6 17 11 13 14 4 20 22 11 20 25 35 29 27 25 32 28 22 22 17 16 14 13 13 13 13 13 14 13 14 16 17 15 15 14 13 12 11 12 11 12 13 14 16
5 5 8 2 8 15 28 12 10 12 15 14 6 19 29 38 33 28 24 25 34 29 24 21 20 17 17 13 13 13 13 13 12 11 13 13 9 12 12 13 13 13 12 12 11 10 8 11 13
10 6 8 12 2 4 6 16 17 15 18 14 17 23 36 38 32 27 25 23 30 29 25 25 28 22 18 17 16 11 12 12 10 9 10 6 9 10 10 13 13 12 14 13 13 11 8 8 2
19 16 8 16 18 18 18 12 11 18 15 20 25 27 30 33 29 28 31 26 27 26 26 29 26 21 19 15 17 15 15 15 9 5 7 12 12 9 7 12 11 10 13 16 10 17 8 4 6
18 17 15 5 10 10 7 9 12 18 6 13 26 29 27 24 22 27 28 27 27 24 28 30 23 16 23 15 19 16 13 20 11 9 5 8 9 12 3 8 10 6 8 12 8 18 14 15 5
18 18 8 7 8 7 5 7 10 13 18 13 26 27 27 23 27 27 29 26 26 20 27 28 23 13 16 15 16 12 13 12 17 10 6 11 7 7 5 6 10 8 2 5 7 12 15 7 10
16 15 15 7 6 14 13 7 11 18 17 24 25 23 24 24 27 25 27 26 26 22 25 27 23 12 15 11 7 7 11 16 13 11 8 9 3 7 7 4 5 7 6 8 7 6 13 10 12
17 19 12 15 11 15 4 5 10 11 18 25 27 22 20 20 30 24 27 26 26 21 24 26 22 15 13 9 5 11 13 10 8 9 9 6 9 3 3 6 5 8 9 7 4 3 13 13 15
13 18 17 17 19 12 13 14 8 15 14 20 28 21 21 20 27 27 28 28 28 24 23 26 21 19 15 12 10 8 7 10 13 8 8 8 7 4 9 4 6 8 10 5 6 4 3 14 13
15 15 20 20 21 18 19 5 4 18 17 19 21 24 21 18 23 27 30 28 30 25 24 25 23 21 19 15 14 12 7 7 10 11 13 10 6 3 5 4 8 6 4 7 3 1 5 3 11
17 18 19 18 18 21 20 12 14 22 8 23 20 23 22 23 20 28 31 29 31 28 27 25 22 23 21 20 15 9 7 9 12 11 11 12 6 4 2 5 7 5 7 4 10 1 8 7 6
20 21 19 17 19 13 11 20 14 10 13 10 20 23 24 22 21 29 30 30 30 30 27 26 22 28 24 19 15 14 14 15 14 14 10 9 11 8 5 6 6 8 5 7 7 7 4 8 5
21 21 20 17 20 15 14 15 14 19 12 5 20 23 26 25 22 24 27 31 30 30 31 27 25 29 27 21 19 16 16 15 14 17 15 10 9 10 11 7 5 5 8 6 2 6 4 3 1
19 20 18 17 16 18 16 14 13 12 8 10 23 23 24 27 26 22 25 30 30 32 32 29 29 28 27 20 21 17 14 11 17 20 14 11 10 9 6 6 6 6 3 6 5 5 7 4 4
19 16 19 19 18 14 18 10 11 13 15 21 21 24 24 24 24 22 24 29 32 34 33 33 29 27 30 24 22 18 14 14 16 19 16 17 13 11 7 6 4 6 7 9 8 7 7 9 4
18 18 15 16 18 19 23 13 11 24 16 18 20 22 26 24 26 26 25 31 33 35 36 35 33 29 28 32 22 22 20 18 14 15 22 22 17 13 12 11 8 8 7 8 7 7 7 6 9
16 18 17 18 15 16 21 19 16 19 20 17 25 28 28 26 25 26 34 33 31 33 36 35 36 34 31 36 28 25 26 19 15 17 23 20 19 18 14 14 11 8 7 10 8 7 6 5 2
17 13 12 14 14 18 19 19 14 14 26 21 17 27 26 27 24 23 25 28 33 36 39 39 40 36 36 34 35 25 30 29 19 16 21 20 19 22 21 17 14 13 10 9 9 10 7 8 4
18 19 14 17 15 18 20 20 17 23 25 28 29 19 21 27 25 23 26 31 37 38 40 39 41 39 38 34 37 32 29 29 26 15 19 15 19 20 26 24 17 12 12 11 11 11 12 9 9
21 19 21 23 22 15 17 17 23 20 21 29 19 16 13 17 15 26 23 31 34 36 41 41 41 40 39 39 35 36 30 29 25 21 21 21 20 10 20 23 19 15 13 13 13 13 11 11 12
16 18 17 15 21 24 18 20 14 19 17 18 19 21 22 19 15 16 22 30 33 37 36 38 39 42 40 40 37 35 38 35 29 31 22 23 21 20 17 22 18 18 17 16 16 14 14 15 14
13 15 18 17 15 18 16 16 16 12 21 19 21 21 15 14 19 18 24 29 36 36 35 38 38 39 40 39 39 36 35 36 38 29 34 28 28 17 22 13 17 19 19 18 17 18 15 20 16
14 20 19 14 18 15 16 18 22 11 7 20 18 24 25 29 21 13 26 35 36 38 38 39 38 38 41 40 38 38 35 36 36 37 31 30 27 27 18 21 17 20 19 21 21 20 19 16 18
Wind_Direction
188 194 210 226 265 238 258 109 119 107 108 130 83 89 98 171 274 122 133 143 144 149 149 147 147 140 132 128 123 118 113 116 119 118 112 110 103 97 98 88 82 86 85 86 95 95 102 103 102
185 204 208 275 246 228 193 135 72 101 112 97 93 97 73 86 98 123 127 144 143 143 144 143 141 135 135 123 117 115 116 118 119 114 113 104 107 105 104 95 91 89 91 93 89 98 96 99 104
245 270 231 230 246 93 29 93 261 115 120 121 96 44 60 104 120 126 136 142 143 142 137 141 140 138 127 123 125 124 122 117 112 107 106 106 106 111 105 97 94 93 92 90 91 92 91 100 103
207 230 252 257 265 229 119 158 213 114 109 95 111 82 101 126 127 132 140 145 145 135 133 136 141 132 130 122 118 118 115 109 110 110 109 107 107 103 101 99 104 99 97 93 91 96 102 100 101
294 249 258 249 240 151 148 168 137 130 130 113 101 110 107 115 130 142 150 151 138 127 132 136 139 131 126 124 121 119 112 111 111 112 113 113 112 111 110 109 109 102 97 99 97 101 105 101 109
273 252 268 257 144 156 156 137 167 143 111 112 110 114 111 137 136 148 155 149 128 130 132 133 132 129 127 125 124 119 113 114 115 116 116 116 113 113 114 109 104 102 103 99 98 99 107 110 112
246 268 256 327 288 225 142 153 153 103 178 119 132 120 130 151 144 156 159 140 129 133 131 134 133 132 126 127 121 122 121 125 123 121 118 118 114 115 112 112 107 111 111 103 105 108 102 107 116
259 273 232 219 154 9 297 123 125 132 260 139 136 139 152 154 152 166 157 143 132 133 138 139 137 139 129 126 128 125 122 125 128 133 132 115 106 106 106 104 112 120 116 108 108 112 111 109 122
222 263 301 276 178 157 236 146 132 167 147 147 159 141 149 154 161 168 150 142 131 138 146 146 146 145 139 135 133 129 139 135 136 142 130 121 115 111 111 119 123 128 127 111 110 109 121 119 132
217 264 292 319 57 274 206 151 165 148 116 116 97 122 146 158 166 171 149 154 150 148 157 156 141 147 156 141 137 145 152 145 143 146 128 104 101 125 121 118 124 128 126 118 96 113 130 139 188
230 252 88 283 282 209 221 154 140 147 152 138 136 143 153 159 171 174 151 161 155 160 160 142 146 153 157 144 152 169 180 165 164 146 150 160 130 131 116 118 121 122 140 142 104 106 148 116 244
237 244 278 332 321 142 11 326 302 86 5 169 140 148 155 168 172 179 155 170 151 170 150 136 146 173 146 148 176 172 185 156 140 149 102 138 133 154 203 151 171 176 153 177 153 162 124 96 118
239 250 277 176 202 99 134 27 260 121 155 158 135 154 159 171 170 180 158 159 151 169 148 135 148 172 151 161 182 176 202 165 150 160 168 154 170 180 142 162 125 153 163 169 188 172 165 121 91
254 238 236 189 267 170 172 191 263 141 206 154 140 161 168 175 174 181 164 155 154 175 143 137 149 168 158 143 201 174 136 128 143 147 138 162 105 168 137 128 126 150 97 117 84 137 139 123 112
279 271 256 230 209 235 176 19 51 107 168 141 147 165 173 190 173 179 167 155 159 175 141 143 152 176 159 187 136 160 153 139 109 153 140 146 145 177 91 193 130 108 101 154 111 214 153 134 136
264 253 256 247 222 216 215 214 209 143 138 154 148 166 178 190 177 179 165 163 162 171 149 152 165 174 166 184 184 192 148 165 159 159 149 148 150 168 140 177 133 147 148 162 177 298 16 154 134
241 243 234 251 209 210 209 149 106 345 270 161 160 163 179 189 183 186 169 165 160 166 158 157 170 170 168 172 180 201 186 154 175 171 157 150 169 191 77 199 166 160 151 219 116 139 29 103 120
239 224 244 232 246 200 207 100 148 206 274 158 168 159 177 191 187 183 169 169 160 160 162 164 169 169 171 168 192 196 200 164 170 173 163 160 156 117 171 172 200 130 145 121 171 95 73 72 39
266 280 236 238 231 227 223 132 137 270 258 286 161 164 175 191 195 178 171 170 161 158 163 172 182 167 172 173 189 205 186 188 193 177 188 164 155 161 174 209 200 114 110 159 141 146 108 112 120
252 264 275 272 251 182 149 161 167 190 238 263 175 179 176 178 199 174 178 173 172 165 167 175 186 167 173 179 193 208 191 186 193 185 170 159 172 174 185 189 154 175 146 159 191 212 27 85 33
235 249 262 274 280 199 213 156 206 220 357 297 249 182 187 175 192 175 186 178 179 168 171 178 183 171 174 186 194 211 220 201 182 165 167 169 184 201 196 175 179 159 186 169 162 172 166 229 243
246 244 254 277 279 270 235 221 171 211 172 249 288 176 194 182 183 177 185 184 182 173 174 178 182 179 182 190 191 204 213 209 194 183 184 175 189 194 186 176 172 173 205 211 187 185 190 201 264
254 257 258 241 266 276 267 256 172 171 186 182 283 215 187 193 183 180 185 189 184 174 175 177 182 186 187 193 194 196 211 220 200 184 202 177 183 195 199 188 195 179 202 177 207 177 198 231 242
250 252 265 270 256 247 251 261 250 166 179 176 217 245 181 186 190 180 182 185 187 178 177 178 182 187 189 196 196 196 206 215 206 208 165 172 187 194 211 190 206 208 199 194 195 207 218 240 315
221 239 237 242 240 247 236 243 248 220 167 166 199 245 185 175 187 183 176 180 189 183 180 181 182 187 190 192 203 197 202 217 220 216 180 187 187 189 198 195 196 204 207 203 200 200 225 243 262
223 225 231 230 236 243 236 249 237 254 188 183 189 197 301 176 179 186 182 186 187 189 183 183 183 186 189 192 199 203 201 214 222 222 209 200 206 206 199 191 195 194 205 202 198 215 220 215 241
250 223 237 260 265 253 259 234 229 245 250 195 165 151 196 267 193 179 184 189 188 190 188 186 184 186 189 194 196 202 200 204 212 212 213 216 227 249 183 187 186 197 210 208 211 212 220 234 217
239 262 235 233 252 262 265 257 257 202 229 238 167 170 180 224 309 290 180 188 192 193 190 189 187 188 191 193 196 198 202 203 203 213 213 214 218 234 187 183 186 193 209 215 209 222 216 211 211
241 257 264 275 239 251 259 259 268 246 201 218 158 159 152 161 225 258 273 195 190 191 192 191 191 188 191 194 198 199 202 204 206 209 215 212 217 218 228 206 197 198 208 217 219 229 233 214 216
248 270 266 247 246 265 253 257 262 316 266 200 215 168 183 168 156 178 249 244 180 188 191 191 192 194 193 195 196 200 201 202 206 209 210 207 209 222 220 224 211 212 212 217 220 226 234 222 221